COSMOS 2251 DEB, 33779

Orbit data source: Space-Track

COSMOS 2251 DEB, 33779 is space debris in LEO originally from a launch on Wed, 16 Jun 1993 UTC launched from the Plesetsk Missile And Space Complex (PKMTR). The debris from Iridium 33, an American commercial communications satellite, has been tracked extensively since its accidental collision with the defunct Russian satellite Cosmos 2251 in 2009. This event, occurring at high speed in low Earth orbit (LEO), generated thousands of pieces of space debris, significantly increasing the risk of further collisions. The Iridium 33 debris cloud has impacted space traffic management and orbital debris mitigation strategies, making it a subject of ongoing study in space situational awareness.

Loading next visibility...
Identifier
33779, 1993-036U
Orbit
LEO
Country
Flag of CISCIS
Related business
Manufacturer
Unknown
Mission
Spacecraft
Bus & Motor
Unknown
Mass
Unknown
Launch date (UTC)
1993-06-16 (33 years ago)
Launch vehicle
Unknown
Launch site
Plesetsk Missile And Space Complex (PKMTR)
Object type
Payload
Rocket body
Debris
Shape & HBR
Unknown shape, 0.1 m
Radar Cross Section
Small (<0.1 m²)

Expand to show TLE details & history
Last TLE update: 12 hours ago

TLE from 12 hours ago
0 COSMOS 2251 DEB
1 33779U 93036U   25355.20949690  .00009280  00000-0  15250-2 0  9993
2 33779  74.0446 154.2960 0016331 187.0839 353.1749 14.70639035886522
Epoch: 2025-12-21T05:01Z
TLE epoch observation values (Epoch: 2025-12-21T05:01:40.532Z)
Latitude
-0.34221°
Longitude
168.9492°
Altitude
650.315 km
Speed
7.539 km/s
True Right ascension
22h 17m 34s
True Declination
0° 20' 24"
Sunlit
Object was in daylight at epoch
Visualization orbit readout
Latitude
Unknown
Longitude
Unknown
Altitude
Unknown
Speed
Unknown
Apparent Right ascension
Unknown
Apparent Declination
Unknown
Sunlit
N/A
Visualization observer readout
Local Sidereal Time
16:00:31
Azimuth
Unknown
Elevation
Unknown
Doppler factor
Unknown
Orbital elements
Apogee altitude
668.102 km
Perigee altitude
645.125 km
Semi-major axis
7,034.751 km
Eccentricity
0.00163
Inclination
74.0446°
RAAN
154.296°
Arg. of periapsis
187.0839°
True anomaly
353.15262°
Mean anomaly
353.1749°
Eccentric anomaly
353.16376°
Mean motion
3.67849 °/min
Orbital period
97.87 mins
BSTAR
0.001525
Loading maneuver chart data...
Computing Atmospheric mass density...

Documentation

Showing up to 5 results
|